Regional Weather Roundup
Issued by NWS Newport/Morehead, NC

Current Version | Previous Version | Graphics & Text | Print | Product List | Glossary Off
Versions: 1 2 3 4 5 6 7 8 9 10 11 12 13 14 15 16 17 18 19 20 21 22 23 24 25 26 27 28 29 30 31 32 33 34 35 36 37 38 39 40 41 42 43 44 45 46 47 48 49 50

000
ASUS42 KMHX 251325
RWRMHX
WEATHER ROUNDUP FOR EASTERN NORTH CAROLINA
NATIONAL WEATHER SERVICE NEWPORT/MOREHEAD CITY NC
900 AM EDT MON JUL 25 2016

NOTE: "FAIR" INDICATES FEW OR NO CLOUDS BELOW 12,000 FEET
WITH NO SIGNIFICANT WEATHER AND/OR OBSTRUCTIONS TO VISIBILITY

NCZ015>017-031-032-045>047-102-103-251400-
NORTH COAST

CITY           SKY/WX    TMP DP  RH WIND       PRES   REMARKS
EDENTON        MOSUNNY   83  82  95 W8        30.06S
ELIZABETH CITY MOSUNNY   84  77  79 SW9       30.04F
KITTY HAWK     SUNNY     85  78  80 SW6       30.04F
MANTEO           N/A     83  79  89 W12       30.06F

$$

NCZ045>047-081-094-103-104-251400-
CENTRAL COAST

CITY           SKY/WX    TMP DP  RH WIND       PRES   REMARKS
FRISCO         SUNNY     84  76  76 W8G17     30.08S

$$

NCZ095-097-098-100-101-251400-
SOUTHERN COAST

CITY           SKY/WX    TMP DP  RH WIND       PRES   REMARKS
BEAUFORT       SUNNY     84  76  76 W9        30.08S
CEDAR ISLAND   NOT AVBL
JACKSONVILLE   SUNNY     84  76  76 W9        30.08S
PINEY ISLAND   NOT AVBL
WILMINGTON     SUNNY     84  76  76 SW10      30.09R


$$

NCZ011>013-027>030-043-044-078>080-089-090>093-098-251400-
COASTAL PLAIN

CITY           SKY/WX    TMP DP  RH WIND       PRES   REMARKS
AHOSKIE        SUNNY     81  78  88 CALM      30.05S
CLINTON        SUNNY     82  78  88 SW6       30.08S
ELIZABETHTOWN  SUNNY     82  76  82 SW7       30.09R
GOLDSBORO      SUNNY     83  82  95 SW7       30.05F
GREENVILLE     SUNNY     82  79  89 SW7       30.08S
HAVELOCK       MOSUNNY   84  77  79 SW10      30.09S
KENANSVILLE    NOT AVBL
KINSTON        SUNNY     84  75  74 SW7       30.08S
NEW BERN       SUNNY     84  77  79 SW8       30.09S
RICHLANDS      MOSUNNY   85  78  80 SW9       30.09S
ROCKY MOUNT    MOSUNNY   81  78  91 SW7       30.06S
WASHINGTON     MOSUNNY   82  77  84 SW7       30.07S
WHITEVILLE     SUNNY     83  76  80 SW6       30.09R

$$

AMZ130-135-150-152-154-156-158-170-250-252-270-ANZ085-086-088-633-658-670-251400-
MARINE OBSERVATIONS

STATION/POSITION TIME  TEMP    WIND        PRES    WAVE   SWELL
                       AIR SEA DIR/SP/G            HT/PER HT/PER
                 (UTC) (F)     (DEG/KT/KT) (MB)    (FT/S) (FT/S)
CHESAPEAKE LIGHT NOT AVBL
64 E VA BEACH    1250   81 81  240/ 14/ 17 1016.7    3/ 4   2/ 9
DUCK             1300   82 60  230/ 11/ 13 1016.9
2 E DUCK         1211      68                N/A     1/ 8
OREGON INLET     1300   82 84  230/ 13/ 16 1017.7
13E OREGON INLT  1300      82                N/A     3/ 4   2/ 8
HATTERAS CG      1300   84 82  260/ 12/ 15 1018.2
DIAMOND BUOY     1250   84 85  260/ 12/ 14 1018.7    3/ 5   2/ 8
CAPE LOOKOUT     1300   84     250/ 10/ 12 1018.4
BEAUFORT LAB     1300   83 83  250/  5/ 10 1017.9
30 SE NEW RVR IN 1308   84 85  270/ 10/ 12 1019.0
30 SE NEW RVR IN 1225      85                N/A     3/ 4
27 SE WRIGHTSVLE 1308   84 84  280/  6/  8 1019.2
5 SE WRIGHTSVLE  1308   82 83  240/  6/  8 1019.9
225 S CAPE HAT   1250   83 84  210/  8/ 10 1020.2    2/ 9   2/ 9
41 SE CHARLESTON 1250   85 86  230/  6/  8 1018.8    2/ 9   2/ 9

$$




USA.gov is the U.S. government's official web portal to all federal, state and local government web resources and services.